[[{"header":{"parameterUnit":"m.s-1","parameterCategory":1,"la1":30.2991,"la2":30.254,"lo1":-89.0895,"lo2":-89.0444,"dy":0.0017,"dx":0.0017,"nx":28,"ny":28,"refTime":"2024-05-05T09:00:00:Z","depth":0,"parameterNumber":2,"parameterNumberName":"U-component_of_WINDS"},"data":[0,0,0,0,0,0,0,0,0,0,0,0,0,0,0,0,0,0,0,0,0,0,0,0,0,0,0,0,0,0,0,0,0,0,0,0,0,0,0,0,0,0,0,0,0,0,0,0,0,0,0,0,0,0,0,0,0,0,-2.5673,-2.5673,0,-2.5711,-2.5711,-2.5712,-2.57,-2.5699,-2.5699,-2.5698,-2.5736,-2.5738,-2.5739,0,0,0,0,0,0,0,0,0,0,0,0,0,-2.559,-2.5592,-2.5673,-2.5673,-2.5674,-2.5711,-2.5711,-2.5712,-2.57,-2.5699,-2.5698,-2.5697,-2.5735,-2.5737,-2.574,0,0,0,0,0,0,0,0,0,0,0,0,0,-2.5627,-2.5592,-2.5673,-2.5673,-2.5673,-2.5711,-2.5711,-2.5712,-2.5701,-2.5699,-2.5698,-2.5697,-2.5735,-2.5737,-2.574,-2.578,0,0,-2.5748,-2.5749,0,0,0,0,0,0,0,0,-2.5625,-2.563,-2.5672,-2.5673,-2.5673,-2.57,-2.5696,-2.5735,-2.5701,-2.569,-2.5698,-2.5696,-2.5725,-2.5728,-2.5738,-2.5782,-2.5783,-2.5748,-2.575,-2.5751,-2.5752,0,0,0,0,0,0,0,-2.5622,-2.5628,-2.5688,-2.5673,-2.5673,-2.5671,-2.5674,-2.5703,-2.5714,-2.5691,-2.569,-2.5695,-2.5725,-2.5735,-2.5739,-2.5784,-2.5748,-2.575,-2.5752,-2.5753,-2.5863,-2.5865,0,0,0,0,0,0,-2.562,-2.5626,-2.5687,-2.5689,-2.5646,-2.5673,-2.5677,-2.5692,-2.5713,-2.5715,-2.5696,-2.5694,-2.5731,-2.5736,-2.574,-2.5788,-2.5751,-2.5753,-2.5755,-2.5862,-2.5864,-2.5865,0,0,0,0,0,0,-2.5618,-2.5625,-2.5685,-2.5657,-2.5665,-2.5676,-2.5693,-2.5694,-2.5704,-2.5717,-2.5719,-2.5705,-2.5731,-2.5736,-2.577,-2.579,-2.5754,-2.5757,-2.586,-2.5863,-2.5864,-2.5886,0,0,0,0,0,0,-2.5615,-2.5624,-2.564,-2.5658,-2.5666,-2.5715,-2.5694,-2.5695,-2.5709,-2.5707,-2.5726,-2.5728,-2.573,-2.5766,-2.5773,-2.5793,-2.5759,-2.5859,-2.5861,-2.5864,-2.5883,-2.5888,-2.5892,0,0,0,0,0,-2.5613,-2.5644,-2.5641,-2.5648,-2.5686,-2.5716,-2.5721,-2.5723,-2.571,-2.5726,-2.5734,-2.5727,-2.5787,-2.577,-2.5777,-2.5798,-2.5857,-2.5861,-2.5864,-2.5881,-2.5887,-2.5892,0,0,0,0,0,0,-2.5627,-2.5646,-2.5643,-2.5681,-2.5697,-2.5714,-2.5733,-2.5729,-2.5749,-2.5747,-2.5749,-2.5753,-2.5788,-2.5796,-2.5778,-2.5838,-2.582,-2.5825,-2.5831,-2.5837,-2.5842,-2.5838,-2.5761,0,0,0,0,0,-2.5635,-2.5658,-2.5673,-2.5706,-2.5714,-2.5723,-2.5736,-2.5736,-2.5753,-2.576,-2.577,-2.5787,-2.5809,-2.5824,-2.5845,-2.5885,-2.5889,-2.5903,-2.5907,-2.5911,-2.5915,-2.5937,-2.5943,-2.5875,-2.5875,-2.5875,0,0,-2.5651,-2.5664,-2.5679,-2.5709,-2.5722,-2.5745,-2.5728,-2.5754,-2.5772,-2.5763,-2.5796,-2.5805,-2.5823,-2.5861,-2.5878,-2.5869,-2.5935,-2.5915,-2.5918,-2.592,-2.5941,-2.5947,-2.5953,-2.5877,-2.5877,-2.5876,0,0,-2.5693,-2.5705,-2.5733,-2.5747,-2.5766,-2.5772,-2.5778,-2.5796,-2.5802,-2.5835,-2.583,-2.5851,-2.5889,-2.5903,-2.5914,-2.5962,-2.5957,-2.5969,-2.5993,-2.6014,-2.602,-2.6025,-2.6041,-2.6048,-2.5973,-2.5973,-2.5973,0,-2.571,-2.5746,-2.5748,-2.5775,-2.5789,-2.5783,-2.5812,-2.5824,-2.585,-2.5859,-2.5849,-2.5898,-2.591,-2.595,-2.5962,-2.5972,-2.598,-2.5967,-2.6019,-2.6024,-2.6028,-2.6044,-2.6051,-2.5975,-2.5974,-2.5974,-2.5974,0,-2.5766,-2.5791,-2.5812,-2.5837,-2.5853,-2.5881,-2.5888,-2.5904,-2.5903,-2.591,-2.5944,-2.5958,-2.5983,-2.5992,-2.5992,-2.6033,-2.6027,-2.6018,-2.6,-2.6036,-2.6051,-2.6057,-2.5977,-2.5976,-2.5976,-2.5975,0,0,-2.5817,-2.5844,-2.5852,-2.5863,-2.5885,-2.5904,-2.5932,-2.5956,-2.5969,-2.5987,-2.601,-2.6044,-2.6036,-2.6049,-2.6051,-2.607,-2.6107,-2.6058,-2.6059,-2.6066,-2.6153,-2.6159,-2.6167,-2.6103,-2.6105,-2.6106,-2.6151,0,-2.586,-2.5909,-2.5913,-2.5956,-2.598,-2.5975,-2.5999,-2.6015,-2.6022,-2.6043,-2.6051,-2.6075,-2.6062,-2.6071,-2.6089,-2.6098,-2.6124,-2.6095,-2.6125,-2.6126,-2.612,-2.6175,-2.6181,-2.6224,-2.6157,-2.6158,-2.6159,0,-2.5917,-2.5937,-2.5983,-2.6002,-2.6012,-2.6033,-2.6056,-2.6076,-2.6094,-2.6098,-2.6114,-2.6113,-2.6141,-2.6123,-2.6162,-2.6142,-2.6155,-2.6161,-2.6163,-2.6165,-2.6144,-2.6178,-2.6238,-2.6244,-2.6169,-2.6168,-2.6167,0,-2.5949,-2.5988,-2.6021,-2.6031,-2.6053,-2.6069,-2.6079,-2.6096,-2.611,-2.613,-2.614,-2.6163,-2.6175,-2.6193,-2.6199,-2.6185,-2.6238,-2.622,-2.6242,-2.6242,-2.6253,-2.6252,-2.6314,-2.6262,-2.6261,-2.6261,-2.6261,0,-2.5997,-2.6025,-2.6036,-2.6056,-2.6088,-2.6092,-2.6123,-2.6132,-2.6148,-2.617,-2.6167,-2.6188,-2.6194,-2.6215,-2.622,-2.6252,-2.6257,-2.6261,-2.6262,-2.6261,-2.6261,-2.6269,-2.6266,-2.6263,-2.6263,-2.6262,-2.6262,0,-2.6038,-2.6046,-2.6082,-2.6101,-2.6106,-2.6129,-2.6145,-2.6164,-2.6171,-2.6199,-2.6206,-2.6217,-2.6243,-2.625,-2.6281,-2.6284,-2.6321,-2.6319,-2.6315,-2.6315,-2.6337,-2.6334,-2.6407,-2.6416,-2.6357,-2.6358,-2.6358,0,-2.6068,-2.609,-2.6111,-2.6126,-2.6137,-2.616,-2.6175,-2.618,-2.6196,-2.6219,-2.6236,-2.6261,-2.6281,-2.6322,-2.6333,-2.6357,-2.6355,-2.6379,-2.6359,-2.6357,-2.6355,-2.6354,-2.6356,-2.6382,-2.6383,-2.6384,-2.6384,0,-2.612,-2.6123,-2.6145,-2.6168,-2.6186,-2.6205,-2.6223,-2.6235,-2.6242,-2.626,-2.6287,-2.6302,-2.6334,-2.6359,-2.6383,-2.6393,-2.639,-2.639,-2.6397,-2.6396,-2.6393,-2.6395,-2.6325,-2.6389,-2.6388,-2.6388,-2.6388,-2.6387,-2.6157,-2.6176,-2.6194,-2.6218,-2.6232,-2.6249,-2.6269,-2.6279,-2.63,-2.6327,-2.6328,-2.6357,-2.6375,-2.6407,-2.6419,-2.6441,-2.6434,-2.6443,-2.6445,-2.6448,-2.6449,-2.639,-2.6445,-2.6445,-2.6445,-2.6445,-2.6445,0,-2.6208,-2.622,-2.6242,-2.6268,-2.6287,-2.6283,-2.6302,-2.6319,-2.6344,-2.6361,-2.6381,-2.6412,-2.6436,-2.6449,-2.6474,-2.6489,-2.6488,-2.6495,-2.6494,-2.6497,-2.6454,-2.6446,-2.6496,-2.6496,-2.6496,-2.6496,-2.6496,-2.6496,-2.6238,-2.627,-2.6275,-2.6315,-2.6326,-2.6354,-2.6366,-2.6382,-2.6395,-2.6429,-2.645,-2.6458,-2.6474,-2.65,-2.6522,-2.6525,-2.6534,-2.6542,-2.6545,-2.6505,-2.65,-2.6495,-2.6487,-2.6544,-2.6544,-2.6585,-2.6586,-2.6586]},{"header":{"parameterUnit":"m.s-1","parameterCategory":1,"la1":30.2991,"la2":30.254,"lo1":-89.0895,"lo2":-89.0444,"dy":0.0017,"dx":0.0017,"nx":28,"ny":28,"refTime":"2024-05-05T09:00:00:Z","depth":0,"parameterNumber":3,"parameterNumberName":"V-component_of_WINDS"},"data":[0,0,0,0,0,0,0,0,0,0,0,0,0,0,0,0,0,0,0,0,0,0,0,0,0,0,0,0,0,0,0,0,0,0,0,0,0,0,0,0,0,0,0,0,0,0,0,0,0,0,0,0,0,0,0,0,0,0,4.9002,4.9002,0,4.9027,4.9027,4.9027,4.8994,4.8993,4.8992,4.8991,4.9014,4.9015,4.9017,0,0,0,0,0,0,0,0,0,0,0,0,0,4.8925,4.8926,4.9002,4.9002,4.9002,4.9026,4.9027,4.9027,4.8994,4.8993,4.8992,4.899,4.9013,4.9015,4.9017,0,0,0,0,0,0,0,0,0,0,0,0,0,4.8955,4.8927,4.9002,4.8989,4.8988,4.9026,4.9027,4.9027,4.8995,4.8993,4.8991,4.899,4.9012,4.9015,4.9017,4.9068,0,0,4.9025,4.9026,0,0,0,0,0,0,0,0,4.8953,4.8957,4.8991,4.899,4.8989,4.9006,4.9008,4.9041,4.8995,4.8992,4.8991,4.8989,4.9012,4.9015,4.9023,4.9069,4.907,4.9025,4.9027,4.9028,4.9029,0,0,0,0,0,0,0,4.8951,4.8956,4.9011,4.8991,4.899,4.8982,4.8984,4.9014,4.9012,4.8992,4.899,4.8994,4.9011,4.9021,4.9023,4.9071,4.9025,4.9028,4.9029,4.903,4.9161,4.9163,0,0,0,0,0,0,4.8951,4.8955,4.9011,4.9012,4.8966,4.8984,4.8987,4.9002,4.9011,4.9011,4.8995,4.8992,4.9017,4.902,4.9024,4.9085,4.9028,4.903,4.9032,4.9159,4.9162,4.9164,0,0,0,0,0,0,4.8949,4.8956,4.901,4.8983,4.8989,4.8988,4.9005,4.9003,4.9013,4.9013,4.9013,4.9005,4.9016,4.902,4.9058,4.9085,4.9032,4.9034,4.9157,4.916,4.9163,4.9207,0,0,0,0,0,0,4.8947,4.8956,4.8975,4.8984,4.8991,4.9044,4.9006,4.9005,4.9018,4.9014,4.9023,4.9022,4.9015,4.9054,4.9061,4.9088,4.9036,4.9155,4.9158,4.9162,4.9204,4.9212,4.9218,0,0,0,0,0,4.8944,4.8986,4.8976,4.8983,4.9015,4.9046,4.9049,4.9041,4.902,4.9039,4.904,4.9022,4.9082,4.9059,4.9065,4.9094,4.9153,4.9157,4.9162,4.92,4.921,4.9218,0,0,0,0,0,0,4.8979,4.8987,4.8976,4.9022,4.9034,4.904,4.9064,4.9051,4.9068,4.9064,4.9052,4.9054,4.9095,4.9098,4.9072,4.9144,4.9114,4.912,4.9141,4.915,4.9157,4.9156,4.9038,0,0,0,0,0,4.8993,4.9017,4.9022,4.9062,4.9068,4.9066,4.9078,4.9071,4.9082,4.9087,4.909,4.9101,4.9122,4.9136,4.9155,4.9204,4.9206,4.9227,4.9234,4.924,4.9246,4.9273,4.9282,4.9178,4.9178,4.9178,0,0,4.902,4.9027,4.9043,4.9069,4.9077,4.9103,4.907,4.9098,4.9117,4.909,4.9127,4.913,4.9141,4.9185,4.9204,4.9189,4.9275,4.9246,4.9251,4.9253,4.9278,4.9288,4.9297,4.9181,4.9181,4.918,0,0,4.9083,4.909,4.9125,4.9134,4.9148,4.9146,4.9154,4.9163,4.9164,4.9201,4.9182,4.9204,4.9241,4.925,4.9259,4.9328,4.9312,4.9334,4.9373,4.9399,4.9407,4.9415,4.9439,4.9448,4.9339,4.9339,4.9339,0,4.9114,4.9153,4.9144,4.9174,4.9186,4.9165,4.92,4.9209,4.9228,4.9237,4.922,4.9266,4.9272,4.9318,4.9335,4.9343,4.9353,4.9333,4.9407,4.9414,4.9421,4.9444,4.9454,4.9342,4.9342,4.9342,4.9341,0,4.9192,4.9219,4.9245,4.9265,4.928,4.9313,4.9309,4.9325,4.9317,4.9316,4.9354,4.9361,4.9382,4.9392,4.9384,4.9438,4.9428,4.9409,4.9378,4.9434,4.9456,4.9464,4.9346,4.9345,4.9344,4.9343,0,0,4.9276,4.9293,4.9302,4.9312,4.9326,4.9346,4.9378,4.94,4.9414,4.9428,4.9454,4.9486,4.947,4.9481,4.9473,4.9496,4.955,4.9474,4.9474,4.9489,4.9611,4.9625,4.9636,4.954,4.9542,4.9543,4.961,0,4.934,4.9396,4.9389,4.9442,4.9467,4.9448,4.9476,4.9487,4.9488,4.9509,4.951,4.9533,4.9509,4.9516,4.9538,4.9539,4.9575,4.9534,4.9564,4.9566,4.9562,4.9647,4.9662,4.9725,4.9619,4.962,4.9621,0,4.9421,4.944,4.9496,4.9507,4.9517,4.9542,4.9562,4.9583,4.9595,4.9594,4.9608,4.9596,4.9628,4.9596,4.964,4.9612,4.9624,4.9627,4.9629,4.9632,4.9597,4.9652,4.9745,4.9754,4.9634,4.9633,4.9632,0,4.9478,4.9517,4.9556,4.9564,4.9578,4.9596,4.9603,4.9614,4.9628,4.9645,4.9654,4.9674,4.9686,4.9701,4.9696,4.9674,4.9741,4.9709,4.9741,4.9741,4.9756,4.9755,4.9852,4.9763,4.9763,4.9763,4.9763,0,4.955,4.9585,4.9582,4.9606,4.9645,4.9637,4.9675,4.9679,4.969,4.9714,4.9698,4.9721,4.9712,4.9734,4.973,4.9767,4.9772,4.9772,4.9771,4.9774,4.9774,4.9781,4.9777,4.9765,4.9765,4.9764,4.9764,0,4.962,4.9619,4.9661,4.9671,4.9675,4.9703,4.9711,4.9734,4.9734,4.9765,4.9772,4.9772,4.9797,4.9794,4.9821,4.9819,4.9865,4.9858,4.9861,4.986,4.9892,4.989,4.9997,5.0011,4.9914,4.9915,4.9915,0,4.9666,4.9693,4.9707,4.9723,4.9731,4.9756,4.9771,4.9764,4.978,4.9797,4.9818,4.9842,4.9861,4.9903,4.9905,4.9927,4.992,4.9957,4.9923,4.9926,4.9921,4.992,4.9923,4.9963,4.9964,4.9965,4.9966,0,4.9748,4.9747,4.9769,4.9792,4.981,4.9827,4.9843,4.9856,4.9851,4.987,4.9897,4.9912,4.9941,4.9966,4.9986,4.9992,4.9978,4.9977,4.9985,4.9989,4.999,4.999,4.988,4.9974,4.9973,4.9973,4.9972,4.9972,4.9808,4.9831,4.9845,4.9871,4.9882,4.9898,4.992,4.9924,4.9946,4.997,4.9965,4.9995,5.0008,5.0034,5.0042,5.0066,5.0052,5.0064,5.0068,5.0071,5.0075,4.9986,5.0069,5.0069,5.0069,5.0068,5.0068,0,4.989,4.9898,4.9922,4.9945,4.9965,4.9952,4.9969,4.9986,5.0014,5.0027,5.0047,5.0078,5.0102,5.0107,5.0129,5.0147,5.0142,5.0153,5.0152,5.0154,5.0086,5.0076,5.0158,5.0158,5.0158,5.0158,5.0158,5.0158,4.9934,4.9974,4.9975,5.002,5.0027,5.0058,5.0069,5.0083,5.0094,5.013,5.015,5.0153,5.0163,5.0187,5.0208,5.0209,5.0218,5.0233,5.0231,5.0167,5.0159,5.015,5.0141,5.0235,5.0235,5.0298,5.0298,5.0299]}]]